| time (UTC) | temp F | wind direction | speed MPH | gust MPH | rain 1hr in | rain 24hr in | rain mn in | humidity % | barometer mb |
| 20260505004547 | 62 | 273 | 0.0 | 0.0 | 0.00 | 0.00 | 0.00 | 45 | 1007.0 |
| 20260505003031 | 63 | 273 | 0.0 | 0.0 | 0.00 | 0.00 | 0.00 | 43 | 1006.7 |
| 20260505001554 | 64 | 273 | 0.0 | 0.0 | 0.00 | 0.00 | 0.00 | 41 | 1006.4 |
| 20260505000043 | 66 | 273 | 0.0 | 0.0 | 0.00 | 0.00 | 0.00 | 39 | 1006.1 |
| 20260504234523 | 67 | 259 | 0.0 | 1.0 | 0.00 | 0.00 | 0.00 | 37 | 1006.0 |
| 20260504233022 | 68 | 276 | 1.0 | 5.0 | 0.00 | 0.00 | 0.00 | 36 | 1005.9 |
| 20260504231503 | 69 | 274 | 0.0 | 1.0 | 0.00 | 0.00 | 0.00 | 35 | 1005.7 |
| 20260504230104 | 69 | 278 | 0.0 | 3.0 | 0.00 | 0.00 | 0.00 | 34 | 1005.5 |
| 20260504224510 | 70 | 293 | 0.0 | 2.0 | 0.00 | 0.00 | 0.00 | 34 | 1005.3 |
| 20260504223103 | 70 | 288 | 0.0 | 5.0 | 0.00 | 0.00 | 0.00 | 34 | 1005.2 |
| 20260504221557 | 70 | 283 | 1.0 | 5.0 | 0.00 | 0.00 | 0.00 | 33 | 1005.2 |
| 20260504220059 | 71 | 283 | 1.0 | 5.0 | 0.00 | 0.00 | 0.00 | 32 | 1005.2 |
| 20260504214543 | 72 | 285 | 4.0 | 13.0 | 0.00 | 0.00 | 0.00 | 31 | 1005.2 |
| 20260504213002 | 72 | 293 | 1.0 | 6.0 | 0.00 | 0.00 | 0.00 | 32 | 1005.1 |
| 20260504211543 | 72 | 285 | 3.0 | 8.0 | 0.00 | 0.00 | 0.00 | 31 | 1005.2 |
| 20260504210010 | 72 | 273 | 3.0 | 8.0 | 0.00 | 0.00 | 0.00 | 33 | 1005.1 |
| 20260504204550 | 72 | 288 | 1.0 | 7.0 | 0.00 | 0.00 | 0.00 | 32 | 1005.0 |
| 20260504203012 | 70 | 286 | 2.0 | 8.0 | 0.00 | 0.00 | 0.00 | 32 | 1005.2 |
| 20260504201552 | 72 | 285 | 4.0 | 9.0 | 0.00 | 0.00 | 0.00 | 31 | 1005.2 |
| 20260504200019 | 71 | 283 | 6.0 | 10.0 | 0.00 | 0.00 | 0.00 | 31 | 1005.1 |
| 20260504194558 | 72 | 268 | 4.0 | 7.0 | 0.00 | 0.00 | 0.00 | 30 | 1005.2 |
| 20260504193043 | 71 | 226 | 1.0 | 8.0 | 0.00 | 0.00 | 0.00 | 31 | 1005.3 |
| 20260504191503 | 72 | 224 | 3.0 | 8.0 | 0.00 | 0.00 | 0.00 | 30 | 1005.3 |
| 20260504190043 | 71 | 285 | 3.0 | 12.0 | 0.00 | 0.00 | 0.00 | 32 | 1005.2 |
| 20260504184507 | 69 | 298 | 2.0 | 13.0 | 0.00 | 0.00 | 0.00 | 32 | 1005.4 |
| 20260504183057 | 70 | 232 | 7.0 | 11.0 | 0.00 | 0.00 | 0.00 | 31 | 1005.6 |
| 20260504181556 | 69 | 260 | 3.0 | 11.0 | 0.00 | 0.00 | 0.00 | 31 | 1005.5 |
| 20260504180054 | 71 | 295 | 4.0 | 10.0 | 0.00 | 0.00 | 0.00 | 31 | 1005.5 |
| 20260504174518 | 70 | 276 | 4.0 | 10.0 | 0.00 | 0.00 | 0.00 | 31 | 1005.6 |
| 20260504173003 | 69 | 293 | 4.0 | 11.0 | 0.00 | 0.00 | 0.00 | 32 | 1005.8 |
| 20260504171502 | 69 | 264 | 5.0 | 14.0 | 0.00 | 0.00 | 0.00 | 32 | 1005.9 |
| 20260504081505 | 40 | 279 | 0.0 | 0.0 | 0.00 | 0.00 | 0.00 | 66 | 1009.3 |
| 20260504050006 | 35 | 279 | 0.0 | 0.0 | 0.00 | 0.00 | 0.00 | 59 | 1009.2 |
| 20260504044546 | 36 | 279 | 0.0 | 0.0 | 0.00 | 0.00 | 0.00 | 63 | 1009.2 |
| 20260504043010 | 36 | 279 | 0.0 | 0.0 | 0.00 | 0.00 | 0.00 | 62 | 1009.2 |
| 20260504041542 | 37 | 279 | 0.0 | 0.0 | 0.00 | 0.00 | 0.00 | 67 | 1009.1 |
| 20260504040003 | 39 | 278 | 0.0 | 0.0 | 0.00 | 0.00 | 0.00 | 67 | 1009.1 |
| 20260504034551 | 39 | 277 | 0.0 | 0.0 | 0.00 | 0.00 | 0.00 | 68 | 1009.0 |
| 20260504033041 | 38 | 294 | 0.0 | 1.0 | 0.00 | 0.00 | 0.00 | 68 | 1008.9 |
| 20260504031547 | 37 | 294 | 0.0 | 0.0 | 0.00 | 0.00 | 0.00 | 66 | 1008.7 |
| 20260504030016 | 38 | 294 | 0.0 | 0.0 | 0.00 | 0.00 | 0.00 | 68 | 1008.6 |
| 20260504024539 | 39 | 294 | 0.0 | 0.0 | 0.00 | 0.00 | 0.00 | 67 | 1008.7 |
| 20260504023014 | 39 | 294 | 0.0 | 0.0 | 0.00 | 0.00 | 0.00 | 66 | 1008.8 |
| 20260504021541 | 39 | 294 | 0.0 | 0.0 | 0.00 | 0.00 | 0.00 | 67 | 1008.6 |
| 20260504020012 | 40 | 293 | 0.0 | 0.0 | 0.00 | 0.00 | 0.00 | 66 | 1008.7 |
| 20260504014534 | 41 | 293 | 0.0 | 0.0 | 0.00 | 0.00 | 0.00 | 62 | 1008.6 |
| 20260504013016 | 43 | 293 | 0.0 | 0.0 | 0.00 | 0.00 | 0.00 | 59 | 1008.5 |
| 20260504011549 | 43 | 293 | 0.0 | 0.0 | 0.00 | 0.00 | 0.00 | 58 | 1008.6 |
| 20260504010010 | 44 | 293 | 0.0 | 0.0 | 0.00 | 0.00 | 0.00 | 57 | 1008.4 |